This is the latest recevied weather packets stored in our database for station/object N6RDS. If no packets are shown the sender has not sent any weather packets the latest 10 day(s).
| Time | Temp. | Humidity | Pressure | Rain* | Wind** | Luminosity | Snow |
|---|---|---|---|---|---|---|---|
| 1777744940 | 18.33° C | 25% | 1028.6 hPa | 0 mm | - | 745 W/m² | - |
| 1777744634 | 17.22° C | 26% | 1029 hPa | 0 mm | - | 736 W/m² | - |
| 1777744329 | 17.22° C | 26% | 1028.8 hPa | 0 mm | - | 732 W/m² | - |
| 1777744026 | 17.22° C | 27% | 1028.6 hPa | 0 mm | - | 686 W/m² | - |
| 1777743723 | 16.67° C | 28% | 1028.7 hPa | 0 mm | - | 712 W/m² | - |
| 1777743420 | 17.78° C | 25% | 1028.7 hPa | 0 mm | - | 705 W/m² | - |
| 1777743118 | 16.67° C | 25% | 1028.8 hPa | 0 mm | - | 692 W/m² | - |
| 1777742815 | 17.78° C | 25% | 1028.8 hPa | 0 mm | - | 684 W/m² | - |
| 1777742511 | 17.22° C | 25% | 1028.7 hPa | 0 mm | - | 677 W/m² | - |
| 1777742206 | 16.67° C | 24% | 1028.7 hPa | 0 mm | - | 656 W/m² | - |
| 1777741903 | 16.67° C | 27% | 1028.8 hPa | 0 mm | - | 657 W/m² | - |
| 1777741601 | 16.67° C | 27% | 1029 hPa | 0 mm | - | 639 W/m² | - |
| 1777741298 | 17.22° C | 26% | 1028.8 hPa | 0 mm | - | 633 W/m² | - |
| 1777740994 | 17.22° C | 25% | 1029 hPa | 0 mm | - | 619 W/m² | - |
| 1777740692 | 16.11° C | 26% | 1029 hPa | 0 mm | - | 601 W/m² | - |
| 1777740387 | 16.11° C | 27% | 1028.7 hPa | 0 mm | - | 593 W/m² | - |
| 1777740085 | 16.11° C | 27% | 1028.6 hPa | 0 mm | - | 584 W/m² | - |
| 1777739780 | 15.56° C | 27% | 1028.7 hPa | 0 mm | - | 572 W/m² | - |
| 1777739478 | 15.56° C | 26% | 1029 hPa | 0 mm | - | 558 W/m² | - |
| 1777739175 | 16.11° C | 25% | 1028.8 hPa | 0 mm | - | 545 W/m² | - |
| 1777738872 | 16.11° C | 24% | 1028.5 hPa | 0 mm | - | 529 W/m² | - |
| 1777738569 | 15.56° C | 25% | 1028.6 hPa | 0 mm | - | 517 W/m² | - |
| 1777738266 | 15.56° C | 24% | 1028.7 hPa | 0 mm | - | 502 W/m² | - |
| 1777737964 | 15° C | 25% | 1028.5 hPa | 0 mm | - | 489 W/m² | - |
| 1777737662 | 15° C | 25% | 1028.6 hPa | 0 mm | - | 420 W/m² | - |
* Rain latest hour (hover to see other rain measurements)
** Current wind speed in m/s (hover to see current wind gust speed)